Location: Unspecified
(0.0000°N, 0.0000°E)
Time: 23:30:46
(UTC+02:00)

NATO 3D Rocket - Visible Passes

Search period start: 24 April 2014 00:00
Search period end: 04 May 2014 00:00
Orbit: 670 x 2297 km, 21.5° (Epoch: 20 April)

Date Brightness Start Highest point End Pass type
(mag) Time Alt. Az. Time Alt. Az. Time Alt. Az.
24 Apr 7.0 03:57:26 15° NNE 03:57:26 15° NNE 04:00:02 10° NE visible
24 Apr 6.8 05:52:59 11° NW 06:00:35 25° NNE 06:10:19 10° ENE visible
24 Apr 4.6 20:39:51 10° SW 20:44:11 25° SSE 20:46:54 16° ESE visible
25 Apr 6.6 04:59:35 18° N 05:02:08 20° N 05:09:51 10° NE visible
25 Apr 6.8 06:59:05 10° NW 07:08:56 35° NNE 07:20:58 10° E visible
25 Apr 3.8 21:45:45 10° WSW 21:49:33 48° SW 21:49:33 48° SW visible
26 Apr 6.9 04:06:14 15° NNE 04:06:14 15° NNE 04:09:31 10° NE visible
26 Apr 6.7 06:02:11 10° NW 06:10:22 28° NNE 06:20:43 10° ENE visible
26 Apr 3.8 20:48:39 10° SW 20:53:56 44° SSE 20:56:39 22° E visible
27 Apr 6.5 05:08:31 18° NNW 05:12:05 22° NNE 05:20:14 10° ENE visible
27 Apr 6.5 07:08:12 10° NW 07:18:17 44° NNE 07:31:03 10° E visible
27 Apr 3.9 21:55:14 10° WSW 21:59:23 53° WNW 21:59:23 53° WNW visible
28 Apr 6.8 04:15:18 16° NNE 04:15:18 16° NNE 04:19:40 10° NE visible
28 Apr 6.5 06:11:25 10° NW 06:19:54 35° NNE 06:31:02 10° E visible
28 Apr 3.3 20:57:47 10° WSW 21:03:34 82° SSE 21:06:32 23° ENE visible
29 Apr 6.3 05:17:42 19° NNW 05:21:49 26° NNE 05:30:43 10° ENE visible
29 Apr 6.1 07:17:18 10° NW 07:27:27 57° NNE 07:40:47 10° E visible
29 Apr 4.7 22:05:07 10° W 22:09:19 34° NW 22:09:19 34° NW visible
30 Apr 6.6 04:24:37 19° NNE 04:24:37 19° NNE 04:30:16 10° ENE visible
30 Apr 6.1 06:20:33 10° NW 06:29:13 44° NNE 06:41:02 10° E visible
30 Apr 4.0 21:07:16 10° WSW 21:13:06 55° NNW 21:16:30 19° NE visible
01 May 6.1 05:27:10 23° NNW 05:31:17 33° NNE 05:41:01 10° E visible
01 May 5.7 07:26:31 10° WNW 07:36:32 74° NNE 07:50:08 10° ESE visible
01 May 5.4 22:15:31 10° WNW 22:19:16 21° NNW 22:19:16 21° NNW visible
02 May 6.3 04:34:12 23° NNE 04:34:12 23° NNE 04:40:53 10° ENE visible
02 May 5.6 06:29:48 10° NW 06:38:23 59° NNE 06:50:39 10° E visible
02 May 5.1 21:17:11 10° W 21:22:34 32° NNW 21:26:26 13° NE visible
03 May 5.7 05:36:53 29° NNW 05:40:35 44° NNE 05:50:59 10° E visible
03 May 4.8 20:18:41 10° W 20:25:43 50° NNW 20:30:52 10° NE visible
03 May 6.0 22:26:40 10° NW 22:29:05 13° NNW 22:29:10 13° NNW visible
